POL46 YSBK-YSBK

Flight info

Callsign POL46
Flight time 0h 20m
Altitude 2000
Route CWST PRT MFGC LHR VCBR CPT CRST TWRN
Aircraft B429/L-SDFGIR/S

Departure

Time 2026-05-09 10:25
Airport Sydney Bankstown Airport (YSBK)

Arrival

Time 2026-05-09 10:46
Airport Sydney Bankstown Airport (YSBK)
Time Latitude Longitude Altitude Speed Heading
2026-05-09 09:57 -33.91771 150.98539 24 ft 0 kts 194°
2026-05-09 10:19 -33.91774 150.98527 19 ft 6 kts 196°
2026-05-09 10:19 -33.91780 150.98515 54 ft 6 kts 219°
2026-05-09 10:19 -33.91823 150.98500 38 ft 7 kts 150°
2026-05-09 10:20 -33.91867 150.98618 45 ft 17 kts 123°
2026-05-09 10:20 -33.91924 150.98680 44 ft 12 kts 144°
2026-05-09 10:20 -33.92003 150.98788 49 ft 20 kts 123°
2026-05-09 10:20 -33.92061 150.98889 47 ft 12 kts 122°
2026-05-09 10:21 -33.92127 150.99007 49 ft 18 kts 123°
2026-05-09 10:21 -33.92174 150.99092 48 ft 11 kts 118°
2026-05-09 10:21 -33.92174 150.99166 44 ft 11 kts 78°
2026-05-09 10:23 -33.92161 150.99217 46 ft 7 kts 349°
2026-05-09 10:23 -33.92139 150.99214 45 ft 12 kts 338°
2026-05-09 10:24 -33.92109 150.99182 47 ft 2 kts 301°
2026-05-09 10:24 -33.92110 150.99180 50 ft 1 kts 309°
2026-05-09 10:24 -33.92095 150.99173 59 ft 19 kts 310°
2026-05-09 10:24 -33.91796 150.98892 228 ft 82 kts 315°
2026-05-09 10:25 -33.91178 150.98648 410 ft 119 kts
2026-05-09 10:25 -33.90502 150.99323 563 ft 137 kts 44°
2026-05-09 10:25 -33.89613 150.99888 636 ft 157 kts 12°
2026-05-09 10:25 -33.88550 151.00259 703 ft 159 kts
2026-05-09 10:26 -33.88228 151.00351 725 ft 158 kts
2026-05-09 10:26 -33.87169 151.00605 825 ft 154 kts
2026-05-09 10:26 -33.86082 151.00735 813 ft 154 kts 356°
2026-05-09 10:26 -33.85047 151.00771 831 ft 144 kts 352°
2026-05-09 10:27 -33.84237 151.00763 734 ft 145 kts 352°
2026-05-09 10:28 -33.83944 151.00766 691 ft 144 kts 353°
2026-05-09 10:28 -33.82950 151.00757 675 ft 138 kts 345°
2026-05-09 10:28 -33.82285 151.00166 895 ft 108 kts 281°
2026-05-09 10:29 -33.82578 150.99544 713 ft 88 kts 179°
2026-05-09 10:29 -33.82945 150.99987 786 ft 87 kts 94°
2026-05-09 10:29 -33.82633 151.00533 832 ft 84 kts 358°
2026-05-09 10:29 -33.82396 151.00382 831 ft 81 kts 296°
2026-05-09 10:30 -33.82354 151.00244 836 ft 80 kts 271°
2026-05-09 10:30 -33.82707 150.99870 859 ft 83 kts 172°
2026-05-09 10:30 -33.83046 151.00398 903 ft 91 kts 83°
2026-05-09 10:30 -33.82611 151.00786 984 ft 86 kts 338°
2026-05-09 10:31 -33.82382 151.00247 995 ft 75 kts 237°
2026-05-09 10:31 -33.82650 151.00024 956 ft 73 kts 180°
2026-05-09 10:32 -33.82745 151.00035 975 ft 71 kts 166°
2026-05-09 10:33 -33.83049 151.00566 954 ft 96 kts 85°
2026-05-09 10:33 -33.82631 151.01230 988 ft 113 kts 30°
2026-05-09 10:33 -33.81927 151.01786 992 ft 123 kts 19°
2026-05-09 10:33 -33.81287 151.01599 1174 ft 81 kts 281°
2026-05-09 10:34 -33.81571 151.01139 978 ft 84 kts 173°
2026-05-09 10:34 -33.81777 151.01246 953 ft 86 kts 136°
2026-05-09 10:35 -33.81949 151.01762 883 ft 92 kts 79°
2026-05-09 10:35 -33.81514 151.02155 872 ft 86 kts 339°
2026-05-09 10:35 -33.81293 151.01578 816 ft 90 kts 239°
2026-05-09 10:36 -33.81842 151.01312 872 ft 94 kts 157°
2026-05-09 10:36 -33.82043 151.01970 902 ft 99 kts 60°
2026-05-09 10:36 -33.81430 151.02054 1019 ft 102 kts 316°
2026-05-09 10:36 -33.81114 151.01197 1015 ft 128 kts 270°
2026-05-09 10:37 -33.81037 151.00024 957 ft 153 kts 265°
2026-05-09 10:37 -33.80955 150.98704 747 ft 156 kts 266°
2026-05-09 10:37 -33.80899 150.97475 573 ft 139 kts 262°
2026-05-09 10:37 -33.80897 150.96387 538 ft 121 kts 266°
2026-05-09 10:38 -33.80785 150.95485 569 ft 103 kts 271°
2026-05-09 10:38 -33.80657 150.94684 577 ft 91 kts 272°
2026-05-09 10:38 -33.80524 150.93944 631 ft 90 kts 276°
2026-05-09 10:38 -33.80385 150.93188 686 ft 100 kts 275°
2026-05-09 10:39 -33.80366 150.93088 691 ft 101 kts 274°
2026-05-09 10:40 -33.80255 150.92300 773 ft 105 kts 265°
2026-05-09 10:41 -33.80571 150.91536 835 ft 113 kts 216°
2026-05-09 10:41 -33.80834 150.90744 972 ft 102 kts 282°
2026-05-09 10:41 -33.80509 150.89967 1004 ft 108 kts 291°
2026-05-09 10:41 -33.80347 150.89045 887 ft 122 kts 263°
2026-05-09 10:42 -33.80340 150.88501 841 ft 126 kts 264°
2026-05-09 10:42 -33.80671 150.87699 1055 ft 101 kts 200°
2026-05-09 10:42 -33.81267 150.87902 965 ft 92 kts 108°
2026-05-09 10:42 -33.80961 150.88442 819 ft 90 kts 353°
2026-05-09 10:43 -33.80439 150.88027 707 ft 95 kts 296°
2026-05-09 10:43 -33.80432 150.87345 629 ft 86 kts 238°
2026-05-09 10:43 -33.80480 150.86759 663 ft 72 kts 318°
2026-05-09 10:43 -33.80168 150.86976 602 ft 56 kts 93°
2026-05-09 10:44 -33.80439 150.87141 528 ft 54 kts 214°
2026-05-09 10:44 -33.80346 150.86776 444 ft 63 kts 350°
2026-05-09 10:44 -33.80240 150.87140 486 ft 62 kts 136°
2026-05-09 10:44 -33.80540 150.86923 554 ft 71 kts 268°
2026-05-09 10:45 -33.80108 150.86701 589 ft 86 kts 30°
2026-05-09 10:46 -33.80486 150.87019 553 ft 19 kts 259°
2026-05-09 10:47 -33.80464 150.86920 598 ft 33 kts 263°
2026-05-09 10:47 -33.80256 150.86710 632 ft 49 kts 27°
2026-05-09 10:47 -33.80367 150.87092 619 ft 67 kts 169°
2026-05-09 10:47 -33.80486 150.86599 671 ft 103 kts 297°
2026-05-09 10:48 -33.79884 150.85835 543 ft 144 kts 309°
2026-05-09 10:48 -33.79279 150.84862 674 ft 151 kts 292°
2026-05-09 10:48 -33.78771 150.83746 670 ft 149 kts 289°
2026-05-09 10:48 -33.78295 150.82704 622 ft 139 kts 289°
2026-05-09 10:49 -33.78131 150.82263 592 ft 137 kts 285°
2026-05-09 10:50 -33.77875 150.81555 627 ft 132 kts 284°
2026-05-09 10:50 -33.77599 150.80509 633 ft 132 kts 278°
2026-05-09 10:51 -33.77334 150.79448 607 ft 134 kts 280°
2026-05-09 10:51 -33.77105 150.78543 546 ft 136 kts 278°
2026-05-09 10:55 -33.76957 150.78012 562 ft 134 kts 282°
2026-05-09 10:55 -33.76746 150.76974 584 ft 134 kts 271°
2026-05-09 10:55 -33.76564 150.75854 538 ft 137 kts 280°
2026-05-09 10:55 -33.76184 150.74811 546 ft 135 kts 285°
2026-05-09 10:56 -33.75913 150.73768 578 ft 131 kts 277°
2026-05-09 10:56 -33.75687 150.72705 582 ft 131 kts 277°
2026-05-09 10:56 -33.75566 150.71651 576 ft 121 kts 277°
2026-05-09 10:56 -33.75008 150.71073 575 ft 99 kts 330°
2026-05-09 10:57 -33.74805 150.70638 676 ft 53 kts 218°
2026-05-09 10:57 -33.75012 150.70761 596 ft 42 kts 75°
2026-05-09 10:58 -33.74843 150.70914 537 ft 44 kts 350°
2026-05-09 10:58 -33.74872 150.70567 530 ft 69 kts 202°
2026-05-09 10:58 -33.75049 150.70949 634 ft 77 kts 42°
2026-05-09 10:59 -33.74698 150.70730 694 ft 76 kts 259°
2026-05-09 10:59 -33.75092 150.70645 786 ft 76 kts 113°
2026-05-09 10:59 -33.74766 150.71065 701 ft 81 kts 335°
2026-05-09 10:59 -33.74667 150.70524 690 ft 80 kts 220°
2026-05-09 11:00 -33.74758 150.70459 703 ft 82 kts 201°
2026-05-09 11:00 -33.74775 150.70451 703 ft 82 kts 198°
2026-05-09 11:00 -33.75169 150.70819 793 ft 83 kts 80°
2026-05-09 11:01 -33.74735 150.71082 718 ft 79 kts 316°
2026-05-09 11:01 -33.74629 150.70833 712 ft 77 kts 268°
2026-05-09 11:01 -33.74669 150.70630 752 ft 69 kts 236°
2026-05-09 11:02 -33.75085 150.70630 767 ft 77 kts 123°
2026-05-09 11:02 -33.74809 150.71117 657 ft 93 kts
2026-05-09 11:02 -33.74350 150.70714 592 ft 103 kts 283°
2026-05-09 11:02 -33.74043 150.69896 564 ft 110 kts 289°
2026-05-09 11:03 -33.73875 150.69028 589 ft 105 kts 252°
2026-05-09 11:03 -33.74336 150.68374 583 ft 109 kts 215°
2026-05-09 11:03 -33.74482 150.68235 600 ft 110 kts 213°
2026-05-09 11:05 -33.75077 150.67698 575 ft 121 kts 211°
2026-05-09 11:05 -33.75780 150.67092 633 ft 126 kts 210°
2026-05-09 11:05 -33.76533 150.66529 726 ft 128 kts 206°
2026-05-09 11:05 -33.77302 150.66008 865 ft 127 kts 204°
2026-05-09 11:06 -33.78156 150.65744 898 ft 134 kts 182°
2026-05-09 11:06 -33.79119 150.65695 875 ft 141 kts 175°
2026-05-09 11:06 -33.80131 150.65782 785 ft 149 kts 165°
2026-05-09 11:06 -33.81158 150.66011 771 ft 151 kts 163°
2026-05-09 11:07 -33.82181 150.66312 768 ft 150 kts 160°
2026-05-09 11:07 -33.83193 150.66688 719 ft 149 kts 159°
2026-05-09 11:07 -33.84144 150.67025 648 ft 136 kts 158°
2026-05-09 11:07 -33.84971 150.67371 797 ft 112 kts 154°
2026-05-09 11:08 -33.85662 150.67752 883 ft 105 kts 151°
2026-05-09 11:08 -33.86314 150.68151 896 ft 107 kts 149°
2026-05-09 11:08 -33.86941 150.68644 998 ft 110 kts 140°
2026-05-09 11:08 -33.87561 150.69247 1004 ft 120 kts 137°
2026-05-09 11:09 -33.88184 150.69921 1095 ft 122 kts 134°
2026-05-09 11:09 -33.88835 150.70622 1100 ft 128 kts 141°
2026-05-09 11:09 -33.89626 150.71117 1102 ft 130 kts 152°
2026-05-09 11:09 -33.90479 150.71535 1115 ft 131 kts 157°
2026-05-09 11:10 -33.91341 150.71890 1179 ft 131 kts 158°
2026-05-09 11:10 -33.92202 150.72226 1201 ft 132 kts 159°
2026-05-09 11:10 -33.92840 150.72465 1193 ft 133 kts 160°
2026-05-09 11:11 -33.93032 150.72527 1195 ft 134 kts 161°
2026-05-09 11:11 -33.93722 150.72836 1169 ft 140 kts 154°
2026-05-09 11:11 -33.94285 150.73096 1113 ft 142 kts 156°
2026-05-09 11:11 -33.95195 150.73488 1155 ft 133 kts 157°
2026-05-09 11:12 -33.96053 150.73876 1163 ft 129 kts 156°
2026-05-09 11:12 -33.96855 150.74261 1279 ft 118 kts 155°
2026-05-09 11:12 -33.97623 150.74670 1182 ft 127 kts 153°
2026-05-09 11:12 -33.98442 150.75107 1119 ft 128 kts 153°
2026-05-09 11:13 -33.99220 150.75658 1026 ft 132 kts 142°
2026-05-09 11:13 -33.99791 150.76467 1065 ft 130 kts 99°
2026-05-09 11:13 -34.00075 150.77566 928 ft 137 kts 111°
2026-05-09 11:13 -34.00519 150.78574 984 ft 135 kts 121°
2026-05-09 11:14 -34.00612 150.78733 990 ft 136 kts 122°
2026-05-09 11:14 -34.00944 150.79296 945 ft 140 kts 123°
2026-05-09 11:14 -34.01448 150.80305 923 ft 140 kts 116°
2026-05-09 11:14 -34.01851 150.80984 950 ft 138 kts 125°
2026-05-09 11:15 -34.02003 150.81198 934 ft 138 kts 131°
2026-05-09 11:15 -34.02818 150.81689 894 ft 130 kts 165°
2026-05-09 11:15 -34.03709 150.81889 776 ft 131 kts 162°
2026-05-09 11:15 -34.04552 150.82123 849 ft 120 kts 161°
2026-05-09 11:16 -34.05338 150.82437 912 ft 116 kts 154°
2026-05-09 11:16 -34.05752 150.82662 923 ft 117 kts 151°
2026-05-09 11:16 -34.05885 150.82732 935 ft 114 kts 154°
2026-05-09 11:17 -34.06395 150.82905 881 ft 114 kts 168°
2026-05-09 11:17 -34.07155 150.83032 894 ft 107 kts 172°
2026-05-09 11:17 -34.07552 150.82571 1041 ft 81 kts 276°
2026-05-09 11:17 -34.07093 150.82478 1084 ft 83 kts 30°
2026-05-09 11:18 -34.07058 150.83058 972 ft 65 kts 148°
2026-05-09 11:18 -34.07364 150.82895 974 ft 55 kts 251°
2026-05-09 11:18 -34.07361 150.82791 959 ft 59 kts 269°
2026-05-09 11:20 -34.07221 150.82570 832 ft 75 kts 322°
2026-05-09 11:21 -34.06790 150.82844 904 ft 80 kts 79°
2026-05-09 11:21 -34.06786 150.82898 912 ft 81 kts 85°
2026-05-09 11:22 -34.06788 150.82939 911 ft 81 kts 95°
2026-05-09 11:22 -34.07225 150.83183 942 ft 82 kts 206°
2026-05-09 11:22 -34.07329 150.82531 1021 ft 95 kts 292°
2026-05-09 11:23 -34.06731 150.82306 1168 ft 99 kts
2026-05-09 11:23 -34.06456 150.82949 1302 ft 98 kts 101°
2026-05-09 11:23 -34.06747 150.83391 1355 ft 89 kts 155°
2026-05-09 11:23 -34.07002 150.83390 1466 ft 78 kts 202°
2026-05-09 11:24 -34.07157 150.82695 1308 ft 113 kts 268°
2026-05-09 11:24 -34.06755 150.81752 1115 ft 139 kts 307°
2026-05-09 11:24 -34.05910 150.81100 1138 ft 150 kts 322°
2026-05-09 11:24 -34.04956 150.80579 1117 ft 150 kts 327°
2026-05-09 11:25 -34.04555 150.80383 1157 ft 146 kts 329°
2026-05-09 11:26 -34.03976 150.80145 1054 ft 149 kts 334°
2026-05-09 11:26 -34.03057 150.79829 1356 ft 125 kts 331°
2026-05-09 11:26 -34.02292 150.79521 1645 ft 109 kts 341°
2026-05-09 11:27 -34.01464 150.79576 1588 ft 130 kts 356°
2026-05-09 11:27 -34.00525 150.79756 1522 ft 141 kts
2026-05-09 11:27 -33.99536 150.79995 1471 ft 148 kts
2026-05-09 11:27 -33.98601 150.80623 1319 ft 159 kts 29°
2026-05-09 11:28 -33.97791 150.81432 1451 ft 149 kts 33°
2026-05-09 11:28 -33.96967 150.82255 1339 ft 157 kts 36°
2026-05-09 11:28 -33.96206 150.83235 1191 ft 161 kts 50°
2026-05-09 11:28 -33.95636 150.84331 1065 ft 149 kts 53°
2026-05-09 11:29 -33.95569 150.84466 1063 ft 147 kts 52°
2026-05-09 11:29 -33.95486 150.84638 1026 ft 147 kts 54°
2026-05-09 11:29 -33.95200 150.85771 994 ft 139 kts 74°
2026-05-09 11:30 -33.94968 150.86872 976 ft 134 kts 69°
2026-05-09 11:30 -33.94735 150.87930 1068 ft 124 kts 73°
2026-05-09 11:30 -33.94708 150.88076 1102 ft 123 kts 73°
2026-05-09 11:30 -33.94573 150.88822 1099 ft 130 kts 72°
2026-05-09 11:31 -33.94336 150.89879 1099 ft 134 kts 71°
2026-05-09 11:31 -33.94098 150.90945 1220 ft 129 kts 69°
2026-05-09 11:31 -33.93914 150.92008 1272 ft 129 kts 93°
2026-05-09 11:31 -33.94088 150.92916 1338 ft 127 kts 105°
2026-05-09 11:33 -33.94848 150.94789 1513 ft 121 kts 116°
2026-05-09 11:34 -33.94785 150.95739 1586 ft 120 kts 57°
2026-05-09 11:34 -33.94232 150.96514 1236 ft 145 kts 45°
2026-05-09 11:35 -33.93736 150.97319 1239 ft 138 kts 46°
2026-05-09 11:35 -33.93109 150.98197 1166 ft 136 kts 39°
2026-05-09 11:36 -33.92436 150.98951 1064 ft 129 kts 33°
2026-05-09 11:36 -33.91866 150.99534 681 ft 128 kts 36°
2026-05-09 11:36 -33.91696 150.99778 517 ft 130 kts 55°
2026-05-09 11:36 -33.91745 151.00584 429 ft 69 kts 159°
2026-05-09 11:37 -33.92003 151.00492 285 ft 28 kts 208°
2026-05-09 11:37 -33.92107 151.00416 246 ft 28 kts 213°
2026-05-09 11:37 -33.92229 151.00319 225 ft 31 kts 203°
2026-05-09 11:37 -33.92379 151.00232 180 ft 14 kts 224°
2026-05-09 11:38 -33.92459 151.00111 155 ft 28 kts 269°
2026-05-09 11:38 -33.92385 150.99866 174 ft 31 kts 287°
2026-05-09 11:38 -33.92304 150.99668 140 ft 20 kts 281°
2026-05-09 11:38 -33.92255 150.99528 121 ft 19 kts 288°
2026-05-09 11:39 -33.92198 150.99370 128 ft 21 kts 284°
2026-05-09 11:39 -33.92167 150.99292 101 ft 18 kts 287°
2026-05-09 11:40 -33.92122 150.99209 45 ft 5 kts 301°
2026-05-09 11:40 -33.92113 150.99187 45 ft 1 kts 297°
2026-05-09 11:40 -33.92112 150.99182 48 ft 0 kts 300°
2026-05-09 11:42 -33.92110 150.99180 51 ft 5 kts 312°
2026-05-09 11:42 -33.92088 150.99052 55 ft 22 kts 232°
2026-05-09 11:42 -33.92054 150.98897 54 ft 26 kts 296°
2026-05-09 11:43 -33.91950 150.98720 43 ft 20 kts 311°
2026-05-09 11:43 -33.91876 150.98645 46 ft 11 kts 301°
2026-05-09 11:43 -33.91836 150.98560 57 ft 14 kts 274°
2026-05-09 11:43 -33.91836 150.98492 46 ft 9 kts
2026-05-09 11:44 -33.91798 150.98505 44 ft 4 kts 17°
2026-05-09 11:44 -33.91795 150.98504 50 ft 4 kts 16°
2026-05-09 11:45 -33.91769 150.98535 36 ft 3 kts 103°
2026-05-09 11:46 -33.91767 150.98544 29 ft 1 kts 190°
2026-05-09 11:46 -33.91769 150.98543 26 ft 0 kts 173°
2026-05-09 11:46 -33.91767 150.98544 26 ft 0 kts 195°